This is the latest recevied weather packets stored in our database for station/object KR4ELZ. If no packets are shown the sender has not sent any weather packets the latest 10 day(s).
| Time | Temp. | Humidity | Pressure | Rain* | Wind** | Luminosity | Snow |
|---|---|---|---|---|---|---|---|
| 1777920246 | 26.67° C | 44% | 1012.3 hPa | 0 mm | - | 265 W/m² | - |
| 1777919942 | 26.67° C | 43% | 1012.2 hPa | 0 mm | - | 147 W/m² | - |
| 1777919640 | 26.11° C | 45% | 1012.2 hPa | 0 mm | - | 194 W/m² | - |
| 1777919337 | 26.67° C | 43% | 1012.4 hPa | 0 mm | - | 109 W/m² | - |
| 1777919034 | 26.67° C | 43% | 1012.4 hPa | 0 mm | - | 63 W/m² | - |
| 1777918731 | 25.56° C | 45% | 1012.2 hPa | 0 mm | - | 61 W/m² | - |
| 1777918428 | 26.11° C | 44% | 1012.4 hPa | 0 mm | - | 59 W/m² | - |
| 1777918127 | 26.11° C | 45% | 1012.7 hPa | 0 mm | - | 667 W/m² | - |
| 1777917825 | 26.11° C | 42% | 1012.9 hPa | 0 mm | - | 689 W/m² | - |
| 1777917523 | 26.11° C | 43% | 1012.8 hPa | 0 mm | - | 625 W/m² | - |
| 1777917219 | 26.67° C | 44% | 1012.9 hPa | 0 mm | - | 672 W/m² | - |
| 1777916918 | 26.11° C | 48% | 1012.9 hPa | 0 mm | - | 713 W/m² | - |
| 1777916615 | 25° C | 48% | 1012.9 hPa | 0 mm | - | 705 W/m² | - |
| 1777916312 | 25.56° C | 47% | 1013 hPa | 0 mm | - | 180 W/m² | - |
| 1777916008 | 25.56° C | 48% | 1013.1 hPa | 0 mm | - | 724 W/m² | - |
| 1777915705 | 25.56° C | 48% | 1013 hPa | 0 mm | - | 528 W/m² | - |
| 1777915402 | 25° C | 46% | 1013.1 hPa | 0 mm | - | 589 W/m² | - |
| 1777915098 | 25° C | 47% | 1013.4 hPa | 0 mm | - | 391 W/m² | - |
| 1777914795 | 25° C | 46% | 1013.5 hPa | 0 mm | - | 639 W/m² | - |
| 1777914492 | 25.56° C | 47% | 1013.5 hPa | 0 mm | - | 557 W/m² | - |
| 1777914189 | 25.56° C | 46% | 1013.6 hPa | 0 mm | - | 697 W/m² | - |
| 1777913885 | 25.56° C | 49% | 1013.5 hPa | 0 mm | - | 694 W/m² | - |
| 1777913582 | 25° C | 47% | 1013.7 hPa | 0 mm | - | 651 W/m² | - |
| 1777913278 | 25° C | 48% | 1013.8 hPa | 0 mm | - | 437 W/m² | - |
| 1777912970 | 25.56° C | 49% | 1013.9 hPa | 0 mm | - | 589 W/m² | - |
* Rain latest hour (hover to see other rain measurements)
** Current wind speed in m/s (hover to see current wind gust speed)